Temp
-7 -6 -6 -6 -6 -5 -5 -5 -6 -7 -7 -7 -7 -7 -6 -7 -6 -7 -5 -5 -6 -6 -6 -7 -6 -6 -6 -6 -6 -6 -6 -6 -5 -5 -5 -5 -5 -5 -5 -5 -5 -5 -5 -6 -6 -6 -6 -7 -7
-8 -7 -6 -6 -5 -5 -5 -6 -6 -7 -7 -7 -6 -6 -6 -8 -6 -7 -6 -6 -6 -6 -7 -6 -7 -7 -6 -6 -7 -7 -7 -6 -6 -6 -6 -6 -6 -6 -5 -5 -5 -5 -6 -6 -6 -6 -7 -8 -8
-8 -8 -7 -7 -6 -5 -6 -6 -7 -8 -8 -8 -6 -7 -7 -8 -7 -6 -6 -6 -7 -7 -7 -7 -7 -7 -7 -7 -7 -7 -7 -7 -6 -6 -6 -6 -6 -6 -6 -6 -6 -6 -6 -6 -6 -7 -8 -9 -9
-8 -8 -8 -7 -6 -6 -6 -8 -8 -8 -8 -7 -6 -6 -7 -8 -6 -6 -7 -7 -7 -7 -6 -7 -7 -7 -8 -7 -7 -7 -6 -7 -7 -6 -6 -7 -7 -7 -7 -6 -7 -7 -7 -7 -7 -8 -8 -9 -9
-8 -8 -8 -8 -7 -7 -7 -8 -9 -9 -9 -8 -7 -7 -7 -7 -7 -7 -7 -7 -7 -7 -7 -7 -7 -7 -8 -8 -7 -7 -7 -6 -7 -7 -7 -7 -7 -7 -7 -7 -7 -7 -8 -8 -8 -9 -9 -9 -10
-9 -9 -8 -8 -8 -7 -8 -8 -9 -9 -9 -9 -9 -8 -8 -7 -8 -7 -7 -7 -7 -7 -7 -7 -7 -7 -8 -8 -8 -7 -7 -7 -7 -7 -7 -8 -8 -8 -8 -8 -8 -8 -8 -9 -9 -9 -9 -10 -10
-9 -9 -8 -8 -8 -8 -8 -9 -10 -10 -9 -9 -8 -8 -8 -8 -7 -7 -8 -7 -7 -7 -8 -8 -8 -8 -8 -8 -8 -8 -7 -8 -8 -7 -8 -8 -8 -9 -9 -9 -8 -9 -9 -9 -10 -9 -10 -10 -11
-10 -9 -8 -8 -8 -8 -9 -10 -10 -11 -10 -9 -9 -8 -8 -9 -8 -7 -7 -8 -7 -7 -8 -8 -8 -8 -8 -8 -8 -7 -7 -8 -8 -8 -8 -8 -9 -9 -9 -9 -9 -9 -10 -10 -10 -10 -10 -11 -11
-11 -10 -8 -8 -8 -8 -9 -11 -11 -11 -11 -10 -9 -9 -8 -8 -7 -8 -8 -8 -8 -7 -8 -8 -8 -8 -8 -8 -8 -8 -8 -8 -8 -8 -8 -9 -9 -10 -10 -10 -9 -10 -10 -10 -11 -11 -11 -11 -11
-11 -10 -8 -9 -9 -9 -9 -10 -11 -11 -10 -10 -10 -9 -8 -9 -8 -8 -9 -8 -9 -9 -7 -7 -8 -8 -8 -8 -8 -8 -8 -8 -8 -9 -9 -9 -10 -10 -10 -10 -10 -10 -11 -11 -11 -11 -11 -11 -12
-11 -9 -10 -9 -10 -10 -10 -9 -12 -11 -10 -9 -10 -10 -9 -8 -8 -8 -8 -9 -9 -10 -9 -9 -8 -8 -8 -8 -8 -8 -8 -8 -9 -9 -10 -10 -10 -10 -10 -10 -11 -11 -11 -11 -11 -12 -12 -11 -12
-11 -9 -10 -10 -10 -11 -11 -11 -11 -9 -9 -9 -11 -11 -9 -9 -9 -9 -9 -9 -10 -9 -9 -8 -8 -8 -8 -8 -8 -8 -8 -8 -9 -9 -10 -10 -10 -11 -11 -11 -11 -11 -11 -11 -12 -12 -12 -12 -12
-10 -9 -10 -10 -11 -12 -11 -10 -10 -10 -10 -10 -11 -11 -10 -10 -10 -10 -9 -10 -9 -9 -8 -8 -8 -8 -9 -9 -8 -8 -8 -9 -9 -9 -10 -10 -10 -10 -11 -11 -11 -11 -11 -12 -12 -13 -12 -12 -12
-11 -10 -10 -10 -11 -12 -10 -10 -11 -10 -9 -10 -10 -10 -10 -9 -9 -9 -9 -9 -9 -9 -9 -9 -9 -8 -8 -9 -9 -9 -8 -8 -9 -9 -10 -10 -10 -10 -11 -11 -11 -10 -11 -12 -13 -13 -13 -12 -12
-12 -11 -10 -10 -10 -10 -11 -11 -11 -9 -9 -10 -11 -10 -11 -12 -10 -10 -10 -10 -10 -10 -10 -9 -9 -8 -8 -9 -9 -9 -9 -9 -9 -9 -9 -10 -10 -10 -10 -11 -11 -11 -10 -12 -12 -13 -13 -12 -12
-12 -11 -10 -9 -11 -10 -12 -11 -10 -10 -10 -10 -11 -11 -11 -11 -11 -11 -9 -10 -9 -10 -10 -10 -9 -9 -9 -9 -9 -9 -9 -9 -9 -10 -9 -9 -10 -10 -10 -11 -11 -11 -12 -12 -13 -13 -13 -13 -12
-12 -11 -12 -11 -11 -11 -12 -11 -10 -10 -10 -10 -11 -11 -11 -11 -11 -11 -11 -11 -10 -10 -10 -9 -8 -9 -9 -9 -9 -9 -9 -9 -10 -9 -9 -9 -9 -10 -11 -11 -11 -11 -12 -13 -12 -12 -13 -13 -13
-12 -13 -12 -12 -11 -13 -13 -12 -11 -10 -10 -10 -11 -11 -12 -11 -11 -11 -11 -10 -10 -10 -10 -8 -9 -9 -10 -10 -9 -9 -9 -9 -9 -9 -10 -9 -9 -10 -11 -11 -11 -11 -11 -12 -13 -13 -13 -13 -13
-13 -13 -12 -12 -11 -15 -15 -15 -10 -11 -11 -11 -10 -11 -11 -11 -11 -10 -11 -11 -11 -10 -9 -8 -8 -9 -10 -10 -10 -9 -9 -9 -9 -9 -9 -10 -9 -10 -11 -11 -11 -11 -11 -12 -13 -13 -13 -13 -13
-14 -13 -12 -12 -12 -14 -13 -13 -10 -11 -10 -11 -11 -11 -11 -11 -11 -11 -11 -11 -11 -9 -8 -8 -9 -9 -10 -10 -10 -9 -9 -9 -9 -9 -9 -9 -9 -10 -10 -10 -11 -11 -12 -13 -13 -13 -13 -13 -13
-14 -14 -13 -13 -13 -13 -12 -13 -12 -10 -11 -11 -11 -10 -10 -11 -11 -10 -11 -11 -11 -9 -9 -9 -9 -9 -10 -10 -9 -9 -9 -9 -9 -9 -9 -9 -9 -10 -10 -10 -11 -11 -12 -12 -12 -13 -13 -13 -13
-15 -15 -15 -14 -14 -13 -13 -13 -13 -11 -11 -11 -11 -11 -10 -10 -10 -10 -10 -10 -9 -9 -9 -9 -9 -9 -9 -9 -9 -9 -9 -9 -9 -9 -8 -9 -9 -10 -10 -11 -11 -12 -12 -12 -12 -12 -13 -13 -13
-19 -20 -19 -17 -16 -15 -13 -15 -11 -11 -11 -11 -11 -12 -11 -11 -10 -10 -10 -10 -10 -10 -9 -9 -9 -8 -8 -8 -8 -9 -9 -9 -9 -9 -9 -9 -10 -10 -10 -12 -12 -12 -12 -12 -12 -12 -13 -13 -13
-21 -21 -21 -21 -21 -20 -13 -17 -12 -12 -12 -12 -14 -14 -12 -11 -11 -10 -10 -10 -9 -9 -9 -9 -8 -8 -8 -8 -8 -9 -8 -9 -9 -9 -9 -9 -10 -10 -11 -12 -12 -12 -12 -12 -12 -12 -13 -13 -13
-21 -21 -21 -21 -21 -20 -17 -20 -16 -13 -13 -15 -15 -14 -13 -11 -10 -10 -10 -10 -9 -9 -9 -8 -8 -8 -8 -8 -8 -8 -8 -9 -8 -9 -9 -9 -10 -11 -12 -12 -12 -12 -12 -13 -12 -12 -12 -12 -12
-20 -21 -21 -21 -21 -20 -20 -20 -18 -16 -17 -16 -15 -15 -14 -13 -11 -10 -10 -10 -9 -9 -9 -8 -8 -8 -8 -8 -8 -8 -9 -9 -9 -9 -9 -10 -10 -11 -11 -12 -12 -12 -12 -12 -12 -12 -12 -12 -12
-21 -22 -21 -22 -21 -21 -20 -20 -19 -17 -16 -15 -15 -15 -15 -15 -11 -10 -10 -10 -9 -9 -8 -8 -8 -8 -8 -8 -8 -9 -9 -9 -9 -9 -10 -10 -11 -11 -11 -11 -11 -12 -12 -12 -12 -12 -12 -12 -12
-22 -22 -21 -22 -20 -20 -20 -20 -20 -18 -18 -16 -16 -16 -16 -14 -10 -10 -10 -10 -10 -9 -8 -9 -8 -9 -9 -9 -9 -9 -9 -9 -9 -9 -10 -10 -11 -11 -11 -11 -11 -11 -12 -12 -12 -12 -12 -12 -12
-22 -21 -21 -21 -21 -21 -20 -20 -19 -18 -18 -17 -16 -16 -16 -14 -12 -10 -10 -10 -10 -10 -9 -9 -9 -9 -9 -9 -9 -9 -9 -9 -9 -10 -10 -10 -11 -11 -11 -11 -11 -11 -12 -12 -12 -11 -11 -11 -12
-21 -21 -21 -22 -21 -21 -20 -18 -19 -18 -18 -17 -16 -15 -15 -12 -11 -10 -10 -10 -10 -9 -10 -10 -10 -9 -9 -10 -10 -9 -9 -9 -10 -10 -10 -10 -10 -11 -11 -11 -12 -11 -12 -11 -11 -11 -11 -12 -12
Height
5851 5855 5858 5861 5866 5868 5874 5879 5881 5885 5896 5897 5892 5892 5895 5894 5888 5892 5893 5895 5898 5897 5897 5895 5894 5894 5893 5892 5891 5891 5890 5889 5887 5886 5885 5884 5882 5881 5879 5879 5876 5874 5872 5870 5867 5865 5864 5863 5862
5846 5849 5852 5855 5862 5864 5871 5877 5880 5885 5891 5887 5887 5890 5893 5891 5887 5887 5891 5893 5895 5895 5894 5892 5891 5891 5891 5889 5888 5888 5887 5886 5884 5882 5882 5880 5879 5878 5876 5874 5873 5870 5869 5867 5864 5862 5860 5859 5858
5842 5844 5847 5850 5855 5862 5867 5875 5882 5886 5881 5881 5883 5888 5890 5890 5886 5888 5889 5893 5892 5892 5891 5889 5889 5888 5888 5887 5886 5884 5884 5883 5881 5881 5879 5878 5877 5875 5874 5871 5868 5865 5865 5862 5859 5857 5855 5855 5854
5838 5840 5842 5845 5852 5859 5866 5869 5873 5879 5873 5878 5881 5883 5885 5880 5876 5888 5888 5890 5890 5890 5889 5888 5886 5885 5885 5884 5883 5882 5882 5880 5880 5878 5877 5875 5873 5870 5868 5866 5865 5861 5861 5858 5856 5854 5853 5851 5849
5833 5835 5837 5840 5847 5855 5859 5862 5867 5873 5871 5871 5875 5877 5880 5881 5875 5884 5885 5886 5887 5887 5886 5885 5883 5883 5881 5881 5880 5879 5879 5878 5877 5875 5874 5872 5870 5867 5865 5864 5861 5859 5857 5854 5852 5851 5848 5846 5846
5827 5829 5832 5834 5842 5849 5853 5855 5862 5863 5865 5870 5870 5874 5873 5877 5872 5879 5881 5882 5883 5882 5882 5881 5880 5880 5879 5879 5879 5878 5877 5875 5874 5871 5869 5868 5866 5863 5861 5861 5859 5856 5855 5852 5849 5848 5846 5844 5843
5823 5822 5825 5830 5836 5842 5849 5847 5851 5857 5859 5864 5868 5870 5873 5865 5864 5872 5876 5875 5876 5876 5877 5876 5876 5877 5877 5877 5876 5875 5874 5873 5871 5869 5868 5866 5863 5860 5859 5858 5857 5855 5852 5849 5848 5847 5844 5842 5840
5813 5815 5818 5824 5829 5833 5839 5846 5849 5849 5851 5856 5864 5863 5857 5855 5863 5860 5869 5868 5869 5872 5872 5872 5872 5872 5873 5873 5873 5872 5870 5868 5868 5867 5866 5863 5861 5859 5857 5855 5854 5852 5849 5847 5845 5843 5841 5838 5837
5806 5805 5808 5818 5823 5830 5832 5835 5839 5842 5846 5852 5857 5854 5850 5850 5856 5853 5858 5861 5860 5860 5867 5870 5868 5868 5869 5869 5869 5868 5866 5865 5864 5863 5863 5861 5859 5857 5855 5853 5850 5848 5846 5844 5842 5839 5837 5835 5832
5794 5796 5804 5815 5817 5819 5822 5827 5831 5834 5837 5843 5848 5845 5846 5844 5853 5852 5851 5855 5856 5853 5856 5862 5866 5863 5864 5866 5867 5864 5863 5862 5860 5858 5858 5857 5856 5854 5851 5849 5847 5844 5842 5839 5837 5834 5833 5831 5828
5787 5787 5801 5805 5809 5812 5814 5820 5820 5821 5827 5838 5845 5841 5844 5843 5848 5851 5848 5851 5855 5855 5850 5844 5856 5860 5860 5860 5863 5862 5860 5858 5856 5855 5853 5852 5851 5850 5848 5846 5843 5840 5836 5835 5832 5830 5828 5826 5823
5774 5785 5788 5797 5800 5797 5801 5808 5809 5815 5822 5830 5836 5838 5837 5838 5842 5846 5850 5850 5851 5842 5846 5839 5845 5854 5854 5856 5856 5857 5857 5854 5853 5851 5850 5849 5847 5846 5842 5841 5839 5836 5832 5830 5828 5826 5823 5821 5818
5768 5778 5778 5782 5783 5784 5792 5795 5801 5802 5812 5818 5821 5827 5832 5833 5834 5837 5840 5842 5844 5839 5842 5842 5841 5851 5850 5846 5848 5848 5849 5849 5849 5848 5846 5844 5842 5840 5837 5834 5832 5831 5828 5825 5822 5821 5818 5814 5814
5761 5762 5764 5769 5772 5773 5779 5784 5790 5796 5808 5810 5812 5817 5819 5814 5818 5824 5827 5833 5838 5838 5839 5840 5837 5837 5848 5843 5840 5841 5840 5839 5841 5841 5840 5839 5837 5836 5833 5830 5827 5824 5824 5821 5818 5816 5813 5809 5807
5749 5748 5754 5759 5764 5766 5769 5768 5773 5790 5797 5798 5801 5806 5810 5810 5807 5812 5817 5824 5830 5833 5834 5835 5836 5830 5838 5840 5838 5834 5836 5834 5832 5831 5830 5831 5831 5829 5827 5824 5821 5819 5815 5813 5813 5810 5809 5805 5802
5738 5739 5744 5759 5754 5760 5756 5754 5771 5781 5783 5786 5790 5793 5801 5801 5802 5804 5807 5816 5817 5825 5826 5826 5829 5828 5828 5831 5831 5832 5829 5827 5829 5827 5823 5820 5822 5821 5819 5817 5815 5812 5808 5806 5805 5804 5801 5797 5793
5730 5730 5731 5740 5744 5744 5742 5744 5758 5768 5768 5771 5777 5781 5786 5792 5795 5799 5799 5806 5808 5810 5814 5814 5823 5823 5820 5821 5824 5825 5826 5824 5824 5821 5818 5814 5813 5814 5812 5810 5807 5805 5802 5800 5799 5797 5796 5793 5791
5717 5715 5720 5724 5737 5730 5729 5731 5746 5753 5754 5758 5762 5766 5773 5778 5784 5790 5789 5798 5799 5796 5798 5806 5814 5816 5816 5811 5814 5818 5819 5818 5817 5815 5812 5806 5805 5806 5806 5803 5800 5797 5796 5794 5792 5793 5790 5787 5784
5698 5701 5705 5715 5719 5714 5718 5721 5730 5736 5739 5743 5749 5753 5755 5763 5772 5778 5779 5786 5788 5785 5785 5800 5805 5809 5809 5807 5807 5807 5809 5809 5809 5807 5807 5801 5797 5798 5798 5796 5793 5792 5789 5787 5786 5786 5784 5782 5779
5685 5687 5695 5697 5700 5696 5700 5700 5714 5721 5725 5730 5734 5739 5746 5754 5760 5766 5770 5777 5774 5775 5779 5791 5795 5799 5801 5800 5800 5802 5803 5803 5801 5800 5799 5795 5791 5791 5789 5789 5787 5785 5782 5781 5780 5779 5778 5776 5775
5671 5673 5677 5676 5679 5678 5690 5686 5697 5711 5713 5715 5719 5727 5735 5741 5746 5753 5758 5764 5766 5767 5773 5781 5783 5787 5790 5791 5792 5794 5794 5795 5794 5790 5791 5788 5784 5783 5782 5782 5780 5778 5776 5775 5774 5773 5771 5770 5768
5655 5660 5658 5659 5661 5664 5676 5667 5680 5696 5701 5705 5710 5716 5722 5729 5735 5741 5746 5752 5760 5765 5766 5770 5771 5774 5779 5782 5782 5784 5786 5786 5785 5781 5783 5780 5777 5776 5775 5774 5773 5772 5771 5770 5768 5767 5765 5764 5763
5643 5646 5644 5645 5645 5647 5655 5653 5670 5685 5687 5693 5696 5702 5709 5716 5723 5730 5736 5745 5749 5752 5755 5760 5763 5764 5769 5772 5773 5775 5776 5778 5776 5774 5774 5773 5770 5769 5769 5768 5766 5766 5765 5763 5763 5761 5759 5758 5756
5631 5632 5633 5633 5634 5630 5645 5641 5651 5665 5672 5679 5683 5687 5694 5701 5710 5718 5727 5733 5736 5742 5747 5751 5755 5759 5760 5761 5764 5765 5767 5768 5767 5766 5766 5764 5763 5763 5762 5761 5761 5760 5759 5758 5756 5755 5753 5752 5750
5621 5626 5625 5626 5627 5622 5630 5630 5631 5649 5655 5661 5671 5677 5682 5691 5698 5709 5715 5721 5728 5734 5739 5742 5746 5750 5752 5754 5756 5757 5758 5758 5758 5759 5759 5756 5757 5756 5756 5755 5755 5754 5753 5752 5750 5749 5747 5745 5743
5617 5617 5615 5614 5617 5616 5619 5616 5619 5630 5635 5644 5655 5665 5671 5678 5689 5696 5706 5714 5719 5725 5730 5734 5737 5740 5744 5746 5747 5749 5750 5750 5752 5752 5751 5751 5750 5750 5749 5749 5748 5748 5747 5746 5744 5743 5741 5738 5735
5610 5612 5614 5608 5606 5604 5608 5607 5611 5618 5623 5631 5647 5654 5658 5666 5678 5690 5700 5703 5710 5716 5722 5725 5728 5732 5735 5738 5739 5741 5742 5743 5745 5744 5744 5744 5744 5744 5743 5743 5743 5742 5741 5740 5738 5737 5734 5733 5731
5606 5608 5606 5603 5599 5597 5599 5600 5605 5615 5618 5625 5637 5645 5650 5655 5668 5681 5689 5695 5701 5707 5711 5717 5720 5724 5727 5730 5732 5734 5736 5737 5737 5738 5738 5738 5738 5738 5737 5738 5737 5736 5736 5734 5731 5731 5729 5728 5726
5603 5600 5600 5598 5593 5591 5591 5593 5600 5599 5609 5620 5634 5642 5639 5648 5660 5673 5681 5686 5692 5700 5704 5709 5713 5716 5719 5723 5725 5727 5729 5730 5731 5732 5732 5733 5733 5733 5733 5732 5731 5731 5730 5729 5728 5727 5725 5723 5721
5592 5593 5595 5592 5591 5589 5588 5588 5588 5589 5597 5606 5622 5628 5631 5642 5654 5663 5671 5681 5688 5692 5696 5700 5706 5710 5713 5716 5719 5722 5723 5724 5725 5726 5727 5728 5728 5728 5727 5726 5725 5725 5724 5724 5723 5722 5721 5719 5716
Wind_Speed
33 33 33 33 31 30 24 22 18 13 15 23 28 33 23 22 27 28 24 12 10 5 8 8 9 10 14 14 13 15 17 20 21 20 23 25 26 26 24 23 24 24 22 23 24 24 24 23 21
33 34 34 35 33 29 24 21 20 11 20 33 32 19 24 24 29 20 22 12 8 9 9 9 9 13 13 12 14 14 17 21 24 24 25 28 29 30 30 28 28 27 25 23 23 22 24 24 23
33 35 37 36 35 27 25 8 12 17 28 33 32 26 26 25 32 31 21 12 12 12 12 10 13 15 15 16 17 17 19 23 23 26 27 29 32 32 32 32 31 30 29 26 25 25 26 25 22
36 36 38 37 34 29 22 20 12 31 33 33 24 28 31 36 37 21 21 16 14 19 20 13 14 19 17 17 16 19 20 22 24 28 27 32 34 35 36 35 33 30 28 27 27 27 25 25 26
40 39 39 39 35 30 29 27 8 17 30 30 33 31 31 33 38 27 24 18 20 23 17 14 16 22 18 15 16 17 18 23 28 31 32 33 34 34 36 35 34 31 30 30 29 30 29 29 27
38 40 41 40 35 34 34 27 16 30 17 23 19 29 32 30 36 31 28 24 25 23 18 17 16 18 14 12 14 17 19 24 28 32 34 35 34 32 35 35 34 32 31 30 28 30 27 28 29
40 40 43 39 37 35 35 35 25 30 38 23 15 27 27 42 37 35 31 29 25 23 20 21 20 17 17 15 20 21 23 26 30 31 32 33 33 32 35 35 35 32 29 27 28 27 28 27 31
41 43 47 43 40 39 30 26 27 26 32 35 27 34 29 36 37 31 31 31 29 25 24 25 24 23 24 21 24 26 27 30 32 32 32 31 30 30 34 36 35 33 31 27 28 27 27 29 33
48 48 51 47 44 40 36 32 29 29 25 25 26 34 41 24 36 39 33 35 34 33 27 26 27 26 26 26 29 29 29 32 35 35 33 31 30 29 31 33 36 36 32 28 27 27 30 32 33
57 56 53 43 43 43 44 39 34 35 37 35 27 40 48 49 30 19 29 28 34 36 34 30 27 29 28 29 29 29 32 33 35 37 36 34 32 31 33 33 36 38 32 30 28 29 31 30 32
49 57 54 51 45 41 40 47 37 43 43 35 31 39 38 45 45 44 22 32 38 32 37 35 19 27 31 33 31 32 33 33 35 36 37 38 36 34 32 34 36 39 34 29 30 32 34 31 32
49 43 43 58 54 52 49 44 47 49 42 42 31 41 40 41 50 50 43 41 36 41 26 25 34 37 36 37 34 33 30 34 35 37 38 38 37 34 33 37 37 37 33 31 31 32 35 33 34
45 42 46 49 53 61 60 53 56 55 43 46 43 37 39 50 44 49 45 44 44 42 43 45 46 41 39 43 40 36 33 34 37 39 42 42 40 36 35 40 40 36 31 30 32 33 37 34 35
45 47 48 49 53 55 67 64 57 57 50 49 55 50 41 45 48 51 60 58 51 50 48 43 48 50 40 44 42 38 39 42 42 41 45 46 43 36 36 39 40 36 28 30 31 33 40 43 43
46 50 51 52 51 53 54 61 72 61 55 52 55 55 56 44 50 52 38 41 47 47 48 48 51 53 44 40 40 41 42 45 48 49 50 49 43 36 37 39 39 34 33 32 32 34 38 44 42
49 51 52 44 51 50 54 60 51 52 64 59 58 56 55 66 61 61 66 57 61 53 55 56 57 49 47 44 41 39 45 49 50 50 52 50 43 35 38 39 38 35 35 36 37 37 40 45 48
50 52 53 52 51 52 54 58 55 51 54 66 66 63 62 60 61 62 64 57 58 60 56 58 49 46 50 48 45 40 44 49 50 52 49 48 43 36 37 39 36 35 35 36 39 40 42 42 42
52 55 55 55 48 52 56 59 55 51 56 57 60 70 67 66 68 64 69 63 59 63 62 55 45 46 46 52 48 44 47 49 52 52 46 47 41 36 36 37 35 36 37 37 39 41 41 39 37
56 57 60 58 58 43 37 42 58 56 57 57 57 57 67 77 72 67 69 61 59 68 70 50 46 45 46 54 50 50 52 55 55 51 42 43 40 35 35 34 35 35 36 34 36 38 38 39 39
56 60 60 62 62 59 62 57 61 60 61 58 58 58 60 58 58 68 69 62 66 70 67 50 50 50 50 55 54 55 58 59 56 50 44 42 40 34 33 31 32 33 33 31 33 34 36 37 36
58 60 62 65 66 68 67 69 67 61 62 64 64 62 58 58 59 57 63 70 72 73 65 56 59 59 57 58 59 56 59 60 54 52 43 40 39 35 31 30 31 32 30 30 30 31 33 34 34
54 51 58 63 67 70 66 72 70 66 66 66 62 61 63 59 59 59 60 56 60 62 64 60 61 62 62 62 59 57 57 53 51 49 40 40 36 30 29 29 31 30 29 29 28 29 31 34 32
42 38 44 53 58 62 68 66 71 66 68 69 68 66 64 60 57 56 57 52 53 52 54 55 54 50 50 54 54 55 51 49 48 44 41 32 30 28 30 28 30 29 28 29 28 31 31 32 32
32 41 42 39 39 46 67 52 73 70 71 71 59 41 66 67 60 57 52 50 52 51 51 49 45 45 43 42 44 44 46 46 43 39 32 31 30 29 26 28 28 28 28 30 30 30 30 28 29
18 25 31 32 30 39 48 37 58 67 67 58 52 57 56 64 60 54 54 51 47 45 43 42 40 39 39 40 40 42 42 39 40 33 31 31 29 27 26 26 27 28 29 30 30 28 27 26 28
26 25 30 29 30 34 30 38 46 53 54 60 59 49 53 61 62 55 50 46 44 42 40 40 41 39 39 37 39 38 35 36 34 30 29 28 26 25 25 27 29 28 28 29 28 27 26 27 30
10 22 19 30 37 37 36 40 44 47 52 61 51 35 43 49 63 54 44 48 45 41 36 37 38 38 38 35 36 32 33 32 29 28 26 25 23 23 27 28 26 27 27 25 27 26 26 25 26
20 18 25 29 35 37 33 21 29 26 31 44 46 35 35 59 57 53 48 44 42 40 37 35 36 35 34 34 32 29 29 27 26 25 23 22 23 26 26 24 25 24 23 24 24 20 22 24 23
20 27 30 32 31 29 24 21 17 28 23 34 43 23 46 59 54 47 45 43 42 40 39 38 37 33 32 31 27 26 25 25 24 23 22 24 25 23 23 22 22 22 22 21 21 18 22 21 22
25 22 23 21 19 24 30 24 16 21 34 35 22 36 43 56 54 46 42 39 38 42 40 39 33 31 31 28 24 23 22 24 23 21 21 21 20 20 21 22 21 21 20 20 19 20 20 20 19
Wind_Direction
213 216 220 224 224 225 228 228 232 164 238 233 211 222 210 196 208 224 252 272 273 287 322 332 339 320 311 331 317 300 323 340 339 339 341 346 347 344 345 343 343 341 338 336 336 332 328 323 318
218 216 218 222 222 224 224 229 223 216 221 226 226 228 223 205 225 225 240 254 242 272 309 320 347 340 336 332 337 319 322 334 337 335 335 340 340 339 339 340 339 342 339 340 337 331 328 324 319
234 223 221 224 221 217 219 218 296 237 231 228 226 219 210 216 229 232 243 244 259 277 295 318 332 331 327 329 328 321 323 330 333 330 329 329 334 335 336 336 341 342 338 340 339 335 330 327 321
240 235 226 224 223 213 214 163 175 242 251 247 236 221 219 207 229 227 238 241 260 278 288 306 324 340 324 330 331 331 321 324 326 328 327 327 334 333 336 337 338 344 340 340 341 336 330 328 325
232 239 235 226 221 213 194 179 191 210 226 247 243 238 226 227 247 244 242 248 259 260 279 297 316 328 319 321 331 335 333 330 327 324 323 326 328 331 334 336 340 343 341 345 343 344 340 336 330
234 236 238 233 228 216 198 187 217 223 219 227 235 236 245 237 247 245 245 247 249 257 271 287 303 323 323 322 332 339 336 334 334 331 326 323 325 330 336 337 340 340 341 343 341 342 339 334 329
236 238 238 236 229 221 210 191 204 231 218 200 247 264 257 252 246 244 247 249 251 257 268 282 289 308 312 311 324 330 332 334 336 335 325 321 324 330 333 335 335 340 339 340 340 339 333 321 322
233 237 238 237 232 225 213 224 224 233 229 216 210 240 214 247 246 249 255 257 257 256 266 276 284 294 302 299 308 322 329 333 334 330 323 320 324 329 330 332 332 336 336 335 340 336 327 325 321
240 235 234 235 236 234 225 214 224 218 225 228 216 237 233 250 251 246 245 259 266 272 269 270 280 287 297 297 302 309 321 328 328 326 325 323 325 327 331 330 330 332 331 331 334 333 320 329 324
241 237 233 235 238 238 231 221 231 235 218 212 231 231 239 241 236 212 237 247 267 274 278 274 273 281 285 296 303 305 318 323 325 324 323 325 324 326 328 326 326 325 324 326 330 327 323 327 322
245 241 236 233 240 243 243 239 228 229 228 226 222 240 248 240 241 243 222 264 268 271 277 274 263 277 286 291 295 303 312 320 322 322 323 325 322 323 327 324 323 319 319 325 323 322 324 322 317
244 249 248 238 238 245 238 234 240 237 235 225 227 232 242 239 242 246 249 255 261 243 260 271 284 289 288 288 293 296 309 315 315 315 319 319 319 319 323 322 319 315 313 322 318 319 318 322 316
249 252 248 241 239 242 242 237 238 235 232 222 212 216 239 245 241 240 238 242 242 258 270 274 283 288 288 291 292 298 308 309 307 309 312 316 316 319 318 316 315 310 316 316 315 313 310 308 317
247 246 246 243 239 243 242 238 237 234 232 233 237 221 221 234 229 242 245 241 249 258 261 270 281 286 286 287 293 301 306 307 305 306 309 312 312 313 310 310 312 308 313 310 309 308 303 295 308
249 247 247 246 250 245 250 241 239 236 228 232 234 236 220 235 252 233 231 243 256 257 260 265 273 278 287 283 290 295 300 301 304 309 310 307 309 308 308 308 308 309 311 311 313 301 303 303 305
251 251 252 252 252 252 250 252 249 246 238 233 234 234 232 229 232 244 251 254 257 260 260 263 267 275 280 281 285 290 297 300 302 306 307 307 308 304 305 306 306 308 306 311 302 303 305 307 312
253 255 253 249 251 253 250 254 252 247 246 242 238 238 235 232 241 248 254 256 259 260 262 261 263 270 276 277 279 287 294 296 300 304 302 305 302 300 303 303 303 301 303 299 295 294 303 302 307
252 254 252 252 249 255 257 254 251 247 247 248 247 241 238 237 237 242 249 250 256 259 258 260 265 268 273 279 279 288 293 295 297 302 301 300 298 299 297 299 296 299 300 298 295 297 298 305 305
252 251 251 249 248 242 249 253 246 247 247 247 248 247 246 238 240 242 243 245 249 253 257 263 266 267 269 273 278 287 291 293 297 298 295 294 295 293 292 293 294 302 302 297 299 299 301 303 306
257 256 253 250 246 242 249 240 244 241 246 248 248 244 245 252 250 247 245 248 249 255 261 267 268 265 266 270 273 279 284 288 293 291 291 289 290 289 288 291 296 299 297 299 297 297 299 296 299
252 254 255 254 248 247 246 248 250 247 247 244 246 247 242 244 247 250 250 248 249 254 262 265 269 269 267 268 274 279 281 286 286 285 286 285 284 283 289 290 297 297 298 295 293 293 291 293 293
254 250 251 250 249 251 246 247 244 244 247 251 252 252 251 245 246 247 252 253 254 260 262 262 264 270 267 269 272 275 279 280 278 281 284 282 283 285 287 292 295 294 294 292 293 290 287 290 296
256 255 257 252 249 248 245 247 248 245 246 247 252 252 250 250 248 247 250 254 253 252 253 256 265 268 268 267 265 269 273 272 274 279 283 280 278 282 285 291 289 288 287 288 289 290 290 294 297
251 255 256 261 261 256 247 250 245 244 245 244 246 256 251 248 246 244 245 248 251 252 254 257 261 266 266 264 263 263 266 270 273 278 276 276 279 282 285 283 283 283 284 287 291 292 293 296 295
261 255 261 263 263 269 256 259 253 241 242 237 237 242 244 247 247 243 242 243 246 254 253 253 255 256 257 255 258 261 264 268 275 273 274 278 280 282 282 278 279 279 284 288 294 293 296 295 296
261 246 235 255 262 259 251 250 246 247 242 235 231 235 243 243 246 245 243 243 244 245 245 248 247 250 252 253 257 260 264 265 272 270 273 277 279 280 276 275 278 282 288 292 291 293 295 298 297
246 243 278 268 261 267 268 252 248 248 242 237 232 220 238 242 245 246 245 239 238 238 239 241 244 245 248 251 255 258 260 263 266 271 275 280 277 275 275 278 283 286 288 288 291 293 293 295 295
262 259 267 267 264 266 262 261 253 242 251 236 207 220 231 238 242 241 242 236 235 231 233 237 241 244 247 250 253 256 256 262 267 271 276 277 274 276 279 282 284 286 290 295 294 295 291 294 293
246 263 266 255 268 258 271 244 155 233 217 187 202 218 235 237 238 237 238 233 230 228 231 235 240 244 245 249 250 250 257 262 268 272 274 277 276 277 280 281 281 285 291 286 287 287 293 290 293
276 276 269 291 293 263 255 175 224 194 187 176 187 217 224 239 235 226 231 228 225 226 232 236 237 238 240 244 245 250 258 266 266 267 272 273 277 280 283 281 282 286 285 284 281 287 288 289 291